Overview Statistics Trail Chart Weather Telemetry Raw packets
 

This is the latest recevied weather packets stored in our database for station/object K2CAT. If no packets are shown the sender has not sent any weather packets the latest 10 day(s).

<< 81 82 83 84 85 86 87 >>
Time Temp. Humidity Pressure Rain* Wind** Luminosity Snow
1777109943 6.67° C 82% 1016.1 hPa 0 mm - 0 W/m² -
1777109643 6.67° C 82% 1016.1 hPa 0 mm - 0 W/m² -
1777109340 6.67° C 82% 1016.2 hPa 0 mm - 0 W/m² -
1777109036 6.67° C 82% 1016.3 hPa 0 mm - 0 W/m² -
1777108731 6.67° C 82% 1016.3 hPa 0 mm - 0 W/m² -
1777108428 6.11° C 82% 1016 hPa 0 mm - 0 W/m² -
1777108129 6.11° C 81% 1016.2 hPa 0 mm - 0 W/m² -
1777107824 6.11° C 81% 1016 hPa 0 mm - 0 W/m² -
1777107524 6.11° C 80% 1016.1 hPa 0 mm - 0 W/m² -
1777107221 6.11° C 80% 1016 hPa 0 mm - 0 W/m² -
1777106921 6.11° C 79% 1016.1 hPa 0 mm - 0 W/m² -
1777106617 5.56° C 79% 1016 hPa 0 mm - 0 W/m² -
1777106314 5.56° C 79% 1015.8 hPa 0 mm - 0 W/m² -
1777106010 5.56° C 77% 1015.7 hPa 0 mm - 0 W/m² -
1777105707 5.56° C 76% 1015.6 hPa 0 mm - 0 W/m² -
1777105408 6.11° C 76% 1015.4 hPa 0 mm - 0 W/m² -
1777105104 6.11° C 75% 1015.5 hPa 0 mm - 0 W/m² -
1777104801 6.11° C 73% 1015.5 hPa 0 mm - 0 W/m² -
1777104497 6.11° C 72% 1015.4 hPa 0 mm - 0 W/m² -
1777104193 6.67° C 71% 1015.3 hPa 0 mm - 0 W/m² -
1777103889 6.67° C 71% 1015.4 hPa 0 mm - 0 W/m² -
1777103587 6.67° C 70% 1015.9 hPa 0 mm - 0 W/m² -
1777103283 6.67° C 68% 1015.6 hPa 0 mm - 0 W/m² -
1777102981 6.67° C 66% 1015.7 hPa 0 mm - 0 W/m² -
1777102679 7.22° C 64% 1015.5 hPa 0 mm - 0 W/m² -

* Rain latest hour (hover to see other rain measurements)
** Current wind speed in m/s (hover to see current wind gust speed)